Simultaneous Nadir Overpasses (SNOs) Predictions

Prediction of SNOs between GOES-16 and FY3D Satellite Orbit:

Table of predicted SNOs for the next 14.0 days since TLE Epoch: 11/26/2022
Index Date Time (GOES-16) GOES-16 Lat,Lon FY3D Lat,Lon Distance(km) Time Diff (sec)
1 11/26/2022 18:56:34 0.00, -75.20 0.07, -74.80 45.01 80
2 11/29/2022 06:58:03 -0.00, -75.21 0.10, -75.79 64.93 80
3 11/30/2022 06:42:23 -0.00, -75.22 -0.87, -71.34 441.73 80
4 12/01/2022 19:02:20 0.01, -75.24 -0.32, -76.79 176.79 80
5 12/02/2022 18:46:40 0.00, -75.25 0.64, -72.35 330.52 80
6 12/04/2022 07:06:28 -0.01, -75.28 0.54, -77.77 283.47 80
7 12/05/2022 06:50:48 -0.00, -75.29 -0.43, -73.32 224.16 80
8 12/06/2022 19:10:44 0.00, -75.32 -0.76, -78.78 393.28 80
9 12/07/2022 18:55:05 -0.00, -75.34 0.22, -74.33 114.63 80
10 12/09/2022 07:17:31 0.00, -75.37 1.01, -79.74 498.33 80
